Starlink 31880

operational
NORAD ID: 59661 Int'l Des: 2024-084 Owner: SPXS Country: US Constellation: starlink
LEOCIRCULAR

About Starlink 31880

Description loading...

Live Position

Loading 3D Globe...

Upcoming Passes

Altitude History

Altitude vs Time

uPlot chart will show altitude changes over time

Two-Line Element Set

1 59661U 24084H 26067.30871598 -.00002128 00000-0 -67883-4 0 9998
2 59661 43.0026 45.9927 0000954 276.8164 83.2579 15.27564236104204
Epoch: Mar 8, 2026 • Age: 16 hours

Current Status

Altitude 495.1 km
Velocity 7.62 km/s
Sub-Earth Point -41.52°S, 80.74°W
Launch Date May 6, 2024
Age 1.8 years
Type internet

Technical Details

Classification Payload
Mass 730.00 kg
Dry Mass 700.00 kg
Total Mass 730.00 kg
Length 0.30 m
Diameter 4.10 m
Span 29.00 m
Shape Box + pan
Manufacturer SPXS
Bus Type Starlink V2M
Phase Status In Orbit
Owner/State SPXS/US

Large Constellations

Loading constellations...